JR0ZFO-13 Weather Reports


Display with metric or nautical units.
time (UTC)temp
F
wind
direction
speed
MPH
gust
MPH
rain 1hr
in
rain 24hr
in
rain mn
in
humidity
%
barometer
mb
20260509173820 42 179 0.0 0.0 0.00 0.00 0.00 79 1022.6
20260509173340 42 179 0.0 0.0 0.00 0.00 0.00 78 1022.6
20260509172838 43 179 0.0 0.0 0.00 0.00 0.00 78 1022.5
20260509172335 43 179 0.0 0.0 0.00 0.00 0.00 77 1022.5
20260509171812 43 179 0.0 1.0 0.00 0.00 0.00 77 1022.4
20260509171331 43 179 0.0 1.0 0.00 0.00 0.00 78 1022.4
20260509170829 43 50 0.0 0.0 0.00 0.00 0.00 79 1022.3
20260509170325 42 50 0.0 0.0 0.00 0.00 0.00 80 1022.3
20260509165823 43 50 0.0 0.0 0.00 0.00 0.00 79 1022.2
20260509165342 43 50 0.0 0.0 0.00 0.00 0.00 78 1022.1
20260509164818 43 50 0.0 0.0 0.00 0.00 0.00 79 1022.1
20260509164337 44 50 0.0 0.0 0.00 0.00 0.00 79 1022.0
20260509163814 43 50 0.0 0.0 0.00 0.00 0.00 80 1022.0
20260509163333 43 50 0.0 0.0 0.00 0.00 0.00 78 1022.0
20260509162833 43 50 0.0 0.0 0.00 0.00 0.00 78 1021.9
20260509162332 43 50 0.0 0.0 0.00 0.00 0.00 79 1022.0
20260509161813 44 50 0.0 0.0 0.00 0.00 0.00 79 1022.1
20260509161349 43 50 0.0 0.0 0.00 0.00 0.00 78 1022.1
20260509160847 44 50 0.0 0.0 0.00 0.00 0.00 79 1022.2
20260509160323 44 50 0.0 0.0 0.00 0.00 0.00 79 1022.1
20260509155826 44 50 0.0 0.0 0.00 0.00 0.00 79 1022.1
20260509155344 44 50 0.0 0.0 0.00 0.00 0.00 79 1022.0
20260509154820 45 50 0.0 0.0 0.00 0.00 0.00 79 1022.0
20260509154316 45 50 0.0 1.0 0.00 0.00 0.00 78 1021.9
20260509153813 45 50 0.0 1.0 0.00 0.00 0.00 78 1022.0
20260509153327 45 47 0.0 0.0 0.00 0.00 0.00 77 1022.0
20260509152829 45 46 0.0 0.0 0.00 0.00 0.00 79 1022.0
20260509152347 45 47 0.0 0.0 0.00 0.00 0.00 78 1022.0
20260509151824 46 47 0.0 0.0 0.00 0.00 0.00 77 1022.0
20260509151323 46 46 0.0 0.0 0.00 0.00 0.00 77 1022.0
20260509150821 46 47 0.0 0.0 0.00 0.00 0.00 77 1022.0
20260509150319 46 47 0.0 0.0 0.00 0.00 0.00 77 1022.0
20260509145817 46 47 0.0 0.0 0.00 0.00 0.00 77 1021.9
20260509145317 46 47 0.0 0.0 0.00 0.00 0.00 77 1021.8
20260509144816 46 47 0.0 0.0 0.00 0.00 0.00 76 1021.8
20260509144314 47 47 0.0 0.0 0.00 0.00 0.00 75 1021.9
20260509143813 47 47 0.0 0.0 0.00 0.00 0.00 74 1021.9
20260509143332 48 46 0.0 1.0 0.00 0.00 0.00 74 1021.8
20260509142829 48 47 0.0 1.0 0.00 0.00 0.00 73 1021.9
20260509142327 48 46 0.0 2.0 0.00 0.00 0.00 73 1021.9
20260509141824 49 46 0.0 2.0 0.00 0.00 0.00 72 1021.9
20260509141327 49 55 0.0 3.0 0.00 0.00 0.00 72 1021.9
20260509140821 49 55 2.0 3.0 0.00 0.00 0.00 72 1021.9
20260509140339 49 65 0.0 2.0 0.00 0.00 0.00 70 1021.8
20260509135816 49 155 0.0 0.0 0.00 0.00 0.00 69 1021.8
20260509135314 48 157 0.0 0.0 0.00 0.00 0.00 69 1021.8
20260509134854 48 158 0.0 0.0 0.00 0.00 0.00 70 1021.8
20260509134330 48 162 0.0 0.0 0.00 0.00 0.00 73 1021.8
20260509133828 48 162 0.0 0.0 0.00 0.00 0.00 73 1021.8
20260509133331 48 162 0.0 0.0 0.00 0.00 0.00 73 1021.8
20260509132829 48 162 0.0 0.0 0.00 0.00 0.00 73 1021.7
20260509132349 49 162 0.0 0.0 0.00 0.00 0.00 70 1021.7
20260509131827 49 162 0.0 0.0 0.00 0.00 0.00 69 1021.7
20260509131324 50 162 0.0 0.0 0.00 0.00 0.00 68 1021.7
20260509130822 50 162 0.0 1.0 0.00 0.00 0.00 67 1021.7
20260509130321 51 162 0.0 1.0 0.00 0.00 0.00 66 1021.6
20260509125819 51 69 0.0 2.0 0.00 0.00 0.00 66 1021.6
20260509125317 51 69 0.0 2.0 0.00 0.00 0.00 66 1021.6
20260509124314 50 66 0.0 1.0 0.00 0.00 0.00 67 1021.5
20260509123812 50 209 0.0 1.0 0.00 0.00 0.00 66 1021.5
20260509123331 50 208 0.0 1.0 0.00 0.00 0.00 64 1021.5
20260509122829 51 209 0.0 1.0 0.00 0.00 0.00 65 1021.5
20260509122329 51 209 0.0 1.0 0.00 0.00 0.00 65 1021.4
20260509121827 50 209 0.0 0.0 0.00 0.08 0.00 65 1021.5
20260509121327 51 209 0.0 0.0 0.00 0.08 0.00 64 1021.4
20260509120825 51 209 0.0 1.0 0.00 0.08 0.00 65 1021.4
20260509120323 51 208 0.0 1.0 0.00 0.08 0.00 64 1021.2
20260509115820 51 209 0.0 1.0 0.00 0.08 0.00 64 1021.1
20260509115319 52 209 0.0 1.0 0.00 0.08 0.00 63 1021.0
20260509114817 52 209 0.0 1.0 0.00 0.08 0.00 63 1020.8
20260509114336 52 209 0.0 1.0 0.00 0.08 0.00 62 1020.8
20260509113819 52 207 0.0 2.0 0.00 0.08 0.00 61 1020.8
20260509113317 52 63 0.0 2.0 0.00 0.08 0.00 61 1020.7
20260509112815 52 206 0.0 0.0 0.00 0.08 0.00 61 1020.7
20260509112313 53 206 0.0 0.0 0.00 0.08 0.00 60 1020.6
20260509111832 53 206 0.0 0.0 0.00 0.12 0.00 58 1020.6
20260509111328 53 206 0.0 0.0 0.00 0.12 0.00 58 1020.3
20260509110826 53 206 0.0 0.0 0.00 0.12 0.00 59 1020.3
20260509110324 53 205 0.0 0.0 0.00 0.12 0.00 58 1020.2
20260509105824 54 205 0.0 0.0 0.00 0.12 0.00 57 1020.2
20260509105321 54 204 0.0 0.0 0.00 0.12 0.00 57 1020.0
20260509104820 54 204 0.0 2.0 0.00 0.12 0.00 57 1019.9
20260509104339 55 202 0.0 2.0 0.00 0.12 0.00 56 1019.9
20260509103817 55 63 0.0 1.0 0.00 0.12 0.00 55 1019.9
20260509103315 56 63 0.0 2.0 0.00 0.12 0.00 54 1019.8
20260509102813 56 63 0.0 5.0 0.00 0.12 0.00 53 1019.6
20260509102332 57 54 3.0 5.0 0.00 0.12 0.00 52 1019.4
20260509101829 57 91 0.0 1.0 0.00 0.79 0.00 52 1019.2
20260509101327 57 55 0.0 0.0 0.00 0.79 0.00 50 1019.1
20260509100824 58 54 0.0 2.0 0.00 0.79 0.00 49 1019.0
20260509100323 59 54 0.0 3.0 0.00 0.79 0.00 47 1019.0
20260509095822 59 24 1.0 5.0 0.00 0.79 0.00 46 1018.9
20260509095319 60 68 2.0 5.0 0.00 0.79 0.00 45 1018.8
20260509094821 60 30 0.0 9.0 0.00 0.79 0.00 44 1018.8
20260509094318 60 288 1.0 12.0 0.00 0.79 0.00 44 1018.6
20260509093816 60 77 6.0 12.0 0.00 0.79 0.00 43 1018.5
20260509093314 61 54 2.0 8.0 0.00 0.79 0.00 43 1018.6
20260509092833 61 59 3.0 9.0 0.00 0.79 0.00 42 1018.4
20260509092331 62 81 4.0 9.0 0.00 0.79 0.00 41 1018.3
20260509091829 62 66 1.0 7.0 0.00 0.79 0.00 40 1018.2
20260509091326 62 76 3.0 13.0 0.00 0.79 0.00 40 1018.2
20260509090826 62 215 4.0 13.0 0.00 0.79 0.00 39 1018.0
20260509090325 63 60 3.0 12.0 0.00 0.79 0.00 39 1018.1
20260509085821 63 32 4.0 12.0 0.00 0.79 0.00 38 1018.0
20260509085321 63 90 3.0 10.0 0.00 0.79 0.00 38 1017.9
20260509084818 63 65 3.0 11.0 0.00 0.79 0.00 37 1017.9
20260509084315 63 198 6.0 14.0 0.00 0.79 0.00 37 1017.8
20260509083812 63 201 6.0 14.0 0.00 0.79 0.00 37 1017.7
20260509083331 64 53 3.0 13.0 0.00 0.79 0.00 37 1017.6
20260509082828 63 59 7.0 12.0 0.00 0.79 0.00 37 1017.7
20260509082348 64 100 4.0 13.0 0.00 0.79 0.00 37 1017.5
20260509081825 64 32 3.0 10.0 0.00 0.79 0.00 36 1017.5
20260509081344 64 43 4.0 20.0 0.00 0.79 0.00 35 1017.4
20260509080841 64 50 7.0 20.0 0.00 0.79 0.00 35 1017.4
20260509080319 64 44 6.0 14.0 0.00 0.79 0.00 35 1017.2
20260509075839 64 53 3.0 14.0 0.00 0.79 0.00 36 1017.4
20260509075336 64 169 7.0 14.0 0.00 0.79 0.00 34 1017.3
20260509074815 64 32 6.0 16.0 0.00 0.79 0.00 34 1017.5
20260509074319 64 72 4.0 16.0 0.00 0.79 0.00 34 1017.3
20260509073816 64 27 6.0 16.0 0.00 0.79 0.00 34 1017.2
20260509073315 64 83 8.0 18.0 0.00 0.79 0.00 33 1017.1
20260509072815 64 125 6.0 15.0 0.00 0.79 0.00 34 1017.2
20260509072313 64 44 8.0 16.0 0.00 0.79 0.00 34 1017.1
20260509071831 64 79 8.0 16.0 0.00 0.79 0.00 33 1017.1
20260509071328 64 47 8.0 17.0 0.00 0.79 0.00 34 1017.0
20260509070826 64 139 7.0 17.0 0.00 0.79 0.00 34 1016.9
20260509070324 64 98 8.0 18.0 0.00 0.79 0.00 35 1016.9
20260509065821 64 46 9.0 18.0 0.00 0.79 0.00 34 1016.9
20260509065319 63 57 9.0 15.0 0.00 0.79 0.00 34 1016.9
20260509064817 63 61 5.0 16.0 0.00 0.79 0.00 35 1016.9
20260509064315 63 98 9.0 16.0 0.00 0.79 0.00 34 1016.9
20260509063814 62 15 7.0 16.0 0.00 0.79 0.00 34 1016.9
20260509063312 62 162 7.0 17.0 0.00 0.79 0.00 35 1016.8
20260509062831 62 89 7.0 17.0 0.00 0.79 0.00 36 1016.8
20260509062329 62 46 8.0 21.0 0.00 0.79 0.00 35 1016.8
20260509061826 62 94 11.0 20.0 0.00 0.79 0.00 35 1016.7
20260509061325 62 116 6.0 15.0 0.00 0.79 0.00 36 1016.9
20260509060844 62 63 9.0 16.0 0.00 0.79 0.00 35 1016.8
20260509060320 62 61 9.0 19.0 0.00 0.79 0.00 35 1016.9
20260509055839 62 33 8.0 19.0 0.00 0.79 0.00 35 1016.9
20260509055316 62 48 8.0 16.0 0.00 0.79 0.00 35 1016.9
20260509054836 62 142 5.0 15.0 0.00 0.79 0.00 36 1016.9
20260509054334 62 50 7.0 14.0 0.00 0.79 0.00 35 1017.0
20260509053811 63 72 7.0 14.0 0.00 0.79 0.00 36 1016.9
20260509053330 63 73 4.0 16.0 0.00 0.79 0.00 36 1016.9
20260509052830 62 12 8.0 17.0 0.00 0.79 0.00 36 1017.0
20260509052311 63 28 10.0 17.0 0.00 0.79 0.00 35 1017.0
20260509051832 63 46 7.0 15.0 0.00 0.79 0.00 36 1017.0
20260509051329 62 45 8.0 15.0 0.00 0.79 0.00 37 1017.0
20260509050849 62 57 9.0 15.0 0.00 0.79 0.00 37 1017.1
20260509050327 62 55 7.0 16.0 0.00 0.79 0.00 37 1017.1
20260509045825 63 97 7.0 12.0 0.00 0.79 0.00 38 1017.0
20260509045323 63 346 4.0 13.0 0.00 0.79 0.00 37 1017.1
20260509044823 63 359 4.0 13.0 0.00 0.79 0.00 36 1017.1
20260509044321 63 120 7.0 14.0 0.00 0.79 0.00 35 1017.0
20260509043820 63 30 7.0 17.0 0.00 0.79 0.00 37 1017.2
20260509043318 63 325 5.0 17.0 0.00 0.79 0.00 36 1017.2
20260509042817 63 333 7.0 18.0 0.00 0.79 0.00 36 1017.1
20260509042315 63 21 7.0 16.0 0.00 0.79 0.00 36 1017.1
20260509041812 63 44 9.0 16.0 0.00 0.79 0.00 37 1017.1
20260509041332 63 19 5.0 12.0 0.00 0.79 0.00 38 1017.3
20260509040833 63 5 4.0 13.0 0.00 0.79 0.00 38 1017.1
20260509040313 64 57 6.0 14.0 0.00 0.79 0.00 38 1017.3
20260509035812 64 338 4.0 18.0 0.00 0.79 0.00 37 1017.2
20260509035332 64 80 10.0 18.0 0.00 0.79 0.00 37 1017.1
20260509034851 64 117 5.0 17.0 0.00 0.79 0.00 37 1017.0
20260509034328 64 11 8.0 17.0 0.00 0.79 0.00 36 1017.0
20260509033849 64 306 6.0 14.0 0.00 0.79 0.00 38 1017.0
20260509033326 65 205 8.0 15.0 0.00 0.79 0.00 37 1016.9
20260509032825 65 34 7.0 15.0 0.00 0.79 0.00 37 1016.9
20260509032323 65 336 5.0 11.0 0.00 0.79 0.00 38 1016.9
20260509031842 64 344 5.0 12.0 0.00 0.79 0.00 41 1017.0
20260509031320 64 351 6.0 13.0 0.00 0.79 0.00 43 1017.0
20260509030839 64 303 6.0 13.0 0.00 0.79 0.00 42 1017.0
20260509030336 63 58 8.0 16.0 0.00 0.79 0.00 49 1017.0
20260509025814 63 15 9.0 16.0 0.00 0.79 0.00 51 1017.1
20260509025313 63 18 9.0 16.0 0.00 0.79 0.00 48 1017.0
20260509024832 63 58 4.0 12.0 0.00 0.79 0.00 49 1017.0
20260509024329 63 25 1.0 12.0 0.00 0.79 0.00 50 1017.1
20260509023828 63 186 2.0 12.0 0.00 0.79 0.00 50 1017.3
20260509023327 62 58 3.0 12.0 0.00 0.79 0.00 50 1017.3
20260509022825 62 287 1.0 6.0 0.00 0.79 0.00 52 1017.3
20260509022322 62 209 1.0 8.0 0.00 0.79 0.00 52 1017.3
20260509021820 62 15 4.0 8.0 0.00 0.79 0.00 55 1017.4
20260509021319 62 52 0.0 11.0 0.00 0.79 0.00 56 1017.4
20260509020837 61 117 4.0 13.0 0.00 0.79 0.00 57 1017.5
20260509020314 60 39 5.0 13.0 0.00 0.79 0.00 56 1017.4
20260509015817 60 41 4.0 11.0 0.00 0.79 0.00 57 1017.4
20260509015317 59 86 1.0 11.0 0.00 0.79 0.00 58 1017.6
20260509014815 59 24 2.0 13.0 0.00 0.79 0.00 58 1017.5
20260509014335 60 158 5.0 14.0 0.00 0.79 0.00 57 1017.6
20260509013834 59 73 2.0 18.0 0.00 0.79 0.00 59 1017.6
20260509013333 59 34 6.0 16.0 0.00 0.79 0.00 58 1017.6
20260509012853 59 53 2.0 15.0 0.00 0.79 0.00 58 1017.5
20260509012328 59 104 5.0 17.0 0.00 0.79 0.00 58 1017.7
20260509011827 59 44 3.0 14.0 0.00 0.79 0.00 60 1017.7
20260509011326 58 75 8.0 15.0 0.00 0.79 0.00 59 1017.6
20260509010844 58 53 8.0 15.0 0.00 0.79 0.00 59 1017.7
20260509010344 58 65 5.0 12.0 0.00 0.79 0.00 60 1017.5
20260509005821 58 59 6.0 15.0 0.00 0.79 0.00 62 1017.6
20260509005319 57 338 11.0 15.0 0.00 0.79 0.00 60 1017.6
20260509004325 57 14 4.0 14.0 0.00 0.79 0.00 64 1017.7
20260509003823 57 101 3.0 12.0 0.00 0.79 0.00 64 1017.7
20260509003322 57 51 3.0 13.0 0.00 0.79 0.00 65 1017.7
20260509002820 56 75 5.0 14.0 0.00 0.79 0.00 64 1017.6
20260509002317 56 65 7.0 14.0 0.00 0.79 0.00 64 1017.6
20260509001816 55 13 8.0 17.0 0.00 0.79 0.00 66 1017.4
20260509001335 55 34 8.0 17.0 0.00 0.79 0.00 65 1017.5
20260509000813 55 46 8.0 16.0 0.00 0.79 0.00 66 1017.6
20260509000334 55 221 5.0 16.0 0.00 0.79 0.00 67 1017.4
20260508235853 54 55 10.0 16.0 0.00 0.79 0.00 67 1017.4
20260508235329 54 6 8.0 18.0 0.00 0.79 0.00 68 1017.6
20260508234811 54 229 6.0 18.0 0.00 0.79 0.00 68 1017.6
20260508234331 54 91 8.0 18.0 0.00 0.79 0.00 68 1017.7
20260508233851 54 22 11.0 18.0 0.00 0.79 0.00 67 1017.7
20260508233328 54 82 4.0 18.0 0.00 0.79 0.00 69 1017.8
20260508232825 53 52 11.0 18.0 0.00 0.79 0.00 69 1017.8
20260508232325 53 32 9.0 18.0 0.00 0.79 0.00 70 1017.7
20260508231824 53 207 7.0 19.0 0.00 0.79 0.00 70 1017.5
20260508231322 53 27 7.0 19.0 0.00 0.79 0.00 70 1017.3
20260508230820 52 47 7.0 21.0 0.00 0.79 0.00 71 1017.2
20260508230318 52 18 12.0 21.0 0.00 0.79 0.00 72 1017.3
20260508225817 51 44 11.0 19.0 0.00 0.79 0.00 73 1017.3
20260508225316 51 54 11.0 23.0 0.00 0.79 0.00 73 1017.4
20260508224816 52 59 10.0 23.0 0.00 0.79 0.00 75 1017.3
20260508224336 52 55 9.0 23.0 0.00 0.79 0.00 76 1017.3
20260508223814 52 27 13.0 23.0 0.00 0.79 0.00 73 1017.0
20260508223313 53 90 9.0 19.0 0.00 0.79 0.00 74 1017.0
20260508222832 53 44 9.0 15.0 0.00 0.79 0.00 73 1016.7
20260508222331 53 22 7.0 13.0 0.00 0.79 0.00 73 1016.7
20260508221829 53 6 7.0 13.0 0.00 0.79 0.00 72 1016.5
20260508221328 53 56 6.0 16.0 0.00 0.79 0.00 72 1016.3
20260508220826 53 94 7.0 16.0 0.00 0.79 0.00 72 1016.0
20260508220329 52 6 2.0 10.0 0.00 0.79 0.00 74 1015.7
20260508215828 51 35 4.0 10.0 0.00 0.79 0.00 74 1015.3
20260508215326 50 60 2.0 6.0 0.00 0.79 0.00 76 1015.2
20260508214825 50 67 0.0 2.0 0.00 0.79 0.00 80 1014.8
20260508214323 49 75 1.0 2.0 0.00 0.79 0.00 80 1014.8
20260508213844 49 187 0.0 2.0 0.00 0.79 0.00 82 1014.2
20260508213321 49 204 0.0 3.0 0.00 0.79 0.00 81 1014.3
20260508212819 49 165 0.0 3.0 0.00 0.79 0.00 81 1013.9
20260508212339 48 72 0.0 6.0 0.00 0.79 0.00 81 1013.3
20260508211816 49 158 2.0 6.0 0.00 0.79 0.00 80 1013.6
20260508211315 49 226 0.0 3.0 0.00 0.79 0.00 78 1013.2
20260508210813 50 213 0.0 1.0 0.00 0.79 0.00 77 1013.1
20260508210332 50 62 0.0 2.0 0.00 0.79 0.00 76 1012.8
20260508205831 50 338 1.0 2.0 0.00 0.79 0.00 76 1012.6
20260508205349 50 34 0.0 1.0 0.00 0.79 0.00 75 1012.5
20260508204828 49 34 0.0 2.0 0.00 0.79 0.00 78 1012.3
20260508204347 48 34 0.0 2.0 0.00 0.79 0.00 80 1012.2
20260508203824 47 93 0.0 3.0 0.00 0.79 0.00 84 1012.2
20260508203323 46 171 1.0 3.0 0.00 0.79 0.00 85 1012.2
20260508202825 46 208 0.0 1.0 0.00 0.79 0.00 85 1012.0
20260508202323 46 208 0.0 6.0 0.00 0.79 0.00 85 1012.0
20260508201821 45 42 1.0 8.0 0.00 0.79 0.00 85 1011.8
20260508201319 45 98 2.0 4.0 0.00 0.79 0.00 84 1011.8
20260508200839 45 31 0.0 3.0 0.00 0.79 0.00 82 1011.6
20260508200339 46 349 2.0 3.0 0.00 0.79 0.00 81 1011.5
20260508195816 45 248 0.0 0.0 0.00 0.79 0.00 81 1011.4
20260508195335 45 247 0.0 0.0 0.00 0.79 0.00 81 1011.3
20260508194833 45 243 0.0 3.0 0.00 0.79 0.00 81 1011.1
20260508194353 46 243 0.0 3.0 0.00 0.79 0.00 81 1011.2
20260508193831 46 54 0.0 1.0 0.00 0.79 0.00 81 1011.0
20260508193330 46 55 0.0 6.0 0.00 0.79 0.00 81 1011.1
20260508192829 46 54 2.0 6.0 0.00 0.79 0.00 80 1011.0
20260508192349 46 64 1.0 2.0 0.00 0.79 0.00 78 1011.0
20260508191827 46 213 0.0 0.0 0.00 0.79 0.00 77 1010.8
20260508191346 46 213 0.0 0.0 0.00 0.79 0.00 77 1010.9
20260508190823 47 212 0.0 3.0 0.00 0.79 0.00 76 1010.7
20260508190321 47 212 0.0 4.0 0.00 0.79 0.00 75 1010.5
20260508185818 47 228 1.0 5.0 0.00 0.79 0.00 75 1010.6
20260508185317 47 348 3.0 6.0 0.00 0.79 0.00 74 1010.4
20260508184835 47 75 3.0 6.0 0.00 0.79 0.00 74 1010.3
20260508184312 47 45 1.0 1.0 0.00 0.79 0.00 76 1010.1
20260508183854 47 16 0.0 1.0 0.00 0.79 0.00 75 1010.1
20260508183315 47 33 0.0 1.0 0.00 0.79 0.00 74 1010.0
20260508182814 47 52 0.0 2.0 0.00 0.79 0.00 74 1009.9
20260508182333 48 52 1.0 2.0 0.00 0.79 0.00 75 1010.0
20260508181833 48 52 1.0 2.0 0.00 0.79 0.00 75 1010.1
20260508181331 48 32 0.0 0.0 0.00 0.79 0.00 73 1010.1
20260508180828 48 32 0.0 1.0 0.00 0.79 0.00 72 1010.1
20260508180326 49 32 0.0 2.0 0.00 0.79 0.00 72 1010.1
20260508175824 49 38 0.0 4.0 0.00 0.79 0.00 70 1010.1
20260508175323 49 61 1.0 4.0 0.00 0.79 0.00 71 1009.9
20260508174822 49 71 0.0 3.0 0.00 0.79 0.00 70 1010.0
20260508174342 50 319 1.0 3.0 0.00 0.79 0.00 68 1010.0